TIANWANG 1B (TW-1B)
1 40927U 15051C   19129.09870806  .00010342  00000-0  16522-3 0  9993
2 40927  97.1420 174.7840 0009293 160.6307 283.6093 15.53316484203718
TIANWANG 1A (TW-1A)
1 40928U 15051D   19129.28451567  .00002901  00000-0  73395-4 0  9998
2 40928  97.1490 161.4811 0009879 213.1071 210.3318 15.40523455202955
LAPAN A2
1 40931U 15052B   19128.08007138  .00000748  00000-0  15064-4 0  9997
2 40931   5.9995 353.3253 0013648 287.6416  72.2667 14.76605893195101
LQSAT
1 40958U 15057A   19129.21573358  .00000014  00000-0  98782-5 0  9994
2 40958  97.9009 199.4991 0018437  15.8937 344.2845 14.73076227192843
CHUBUSAT 2
1 41338U 16012B   19128.83725950  .00000311  00000-0  17531-4 0  9995
2 41338  31.0039  44.3997 0013667  58.6686 301.5286 15.00134916176778
CHUBUSAT 3
1 41339U 16012C   19129.14419933  .00000322  00000-0  18315-4 0  9995
2 41339  31.0103  40.5963 0013364  68.6461 291.5606 15.00312037176819
OUFTI-1
1 41458U 16025C   19128.45461882  .00003094  00000-0  15986-3 0  9993
2 41458  98.1005 213.2081 0167981 135.5114 225.9743 15.05668304166379
E-STAR-2
1 41459U 16025D   19129.19256431  .00001946  00000-0  10301-3 0  9998
2 41459  98.0994 213.6692 0168697 134.1493 227.3806 15.05318399166459
AAUSAT 4
1 41460U 16025E   19129.28458942  .00002922  00000-0  14902-3 0  9997
2 41460  98.0961 214.9087 0159812 127.0025 234.5945 15.07158137166580
NUSAT 1
1 41557U 16033B   19129.41986640  .00001134  00000-0  45308-4 0  9998
2 41557  97.4172 217.1577 0015569  81.9500 278.3505 15.27105683163944
BEESAT 4
1 41619U 16040W   19129.17581815  .00001192  00000-0  53573-4 0  9990
2 41619  97.3708 192.1490 0012018 158.2783 201.8966 15.23005601147691
PRATHAM
1 41783U 16059A   19128.15273291  .00000054  00000-0  19765-4 0  9996
2 41783  98.0710 188.6435 0034303 152.6742 207.6274 14.62988183139477
ALSAT 1N
1 41789U 16059G   19129.13350258  .00000103  00000-0  28480-4 0  9999
2 41789  98.0730 191.5081 0029186 139.3392 221.0007 14.64235703139717
NAYIF 1
1 42017U 17008BX  19129.15924734  .00001207  00000-0  50644-4 0  9990
2 42017  97.4057 196.6668 0005028 325.2879  34.8031 15.25400624123746
MAX VALIER SAT
1 42778U 17036P   19129.16045187  .00000800  00000-0  38085-4 0  9995
2 42778  97.3580 187.7124 0012655  15.2867 344.8749 15.21931930104075
